Location: Ash Shall?l al Awwal
(24.0167°N, 32.8667°E)
Time: 03:51:58
(UTC+00:00)

DELTA 2 R/B (1) - Pass Details

Date: 02 March 2021
Orbit: 789 x 803 km, 39.6° (Epoch: 12 April)

Event Time Altitude Azimuth Distance (km) Brightness Sun altitude
Rises 17:28:52 0° 252° (WSW) 3,272 7.9 -22.9°
Reaches altitude 10° 17:31:26 10° 258° (WSW) 2,343 7.0 -23.5°
Maximum altitude 17:36:44 46° 331° (NNW) 1,043 4.3 -24.7°
Enters shadow 17:38:33 34° 19° (NNE) 1,270 4.4 -25.1°
